Regional Weather Roundup
Issued by NWS

Home | Current Version | Previous Version | Text Only | Print | Product List | Glossary Off
Versions: 1 2 3 4 5 6 7 8 9 10 11 12 13 14 15 16 17 18 19 20 21 22 23 24 25 26 27 28 29 30 31 32 33 34 35 36 37 38 39 40 41 42 43 44 45 46 47 48 49 50

605
ASUS45 KPSR 290710
RWRAZ

ARIZONA HOURLY REGIONAL WEATHER ROUNDUP
NATIONAL WEATHER SERVICE PHOENIX AZ
1200 AM MST SUN MAY 29 2016

NOTE: FAIR INDICATES FEW OR NO CLOUDS BELOW 12,000 FEET WITH NO
SIGNIFICANT WEATHER AND/OR OBSTRUCTIONS TO VISIBILITY.

AZZ001>003-036-290800-
NORTHWEST ARIZONA

CITY           SKY/WX    TMP DP  RH WIND       PRES   REMARKS
KINGMAN        CLEAR     69  28  21 MISG      29.96S
$$

AZZ004>008-015-016-018-290800-
NORTH CENTRAL ARIZONA

CITY           SKY/WX    TMP DP  RH WIND       PRES   REMARKS
GRAND CANYON   CLEAR     41  26  55 CALM      30.16R
WILLIAMS       CLEAR     45  19  36 S9        30.23S
PRESCOTT       CLEAR     56  28  34 S8        30.06S
FLAGSTAFF      CLEAR     42  20  41 CALM      30.18F
PAYSON         CLEAR     61  21  21 CALM      30.09S
PAGE           PTCLDY    68  30  24 SW3       29.99R
$$

AZZ009>014-017-290800-
NORTHEAST ARIZONA

CITY           SKY/WX    TMP DP  RH WIND       PRES   REMARKS
WINSLOW        CLEAR     61  20  20 W6        30.05R
SAINT JOHNS    CLEAR     57  17  21 SW8       30.09R
WINDOW ROCK    CLEAR     50  27  40 CALM      30.16S
SHOW LOW       CLEAR     54  18  24 S9        30.16R
$$

AZZ023-290800-
GREATER PHOENIX AREA

CITY           SKY/WX    TMP DP  RH WIND       PRES   REMARKS
PHOENIX        CLEAR     82  33  17 W8        29.84R
BUCKEYE        CLEAR     75  30  19 W6        29.88R
LUKE AFB       CLEAR     81  34  18 SW13      29.84R
DEER VALLEY    CLEAR     79  32  18 W7        29.87R
SCOTTSDALE     CLEAR     80  33  18 VRB3      29.89R
MESA-GATEWAY   CLEAR     79  34  19 W3        29.88R
$$

AZZ027-028-290800-
SOUTHWEST MARICOPA COUNTY AND PINAL COUNTY

CITY           SKY/WX    TMP DP  RH WIND       PRES   REMARKS
CASA GRANDE    CLEAR     77  30  18 S7        29.89R
GILA BEND      FAIR      76  30  19 E3        29.85S
$$

AZZ503-504-507>509-290800-
SOUTHEAST ARIZONA

CITY           SKY/WX    TMP DP  RH WIND       PRES   REMARKS
TUCSON         CLEAR     72  29  20 W5        29.98R
DAVIS-MONTHAN  CLEAR     69  14  12 SE2       29.96S
NOGALES        CLEAR     59  12  15 E3        30.03F
SIERRA VISTA   CLEAR     63   8  11 SW7       30.08F
DOUGLAS        CLEAR     59   5  11 E7        30.06S
SAFFORD        CLEAR     75  17  11 NW9       29.94R
$$

AZZ020-021-025-026-031-290800-
SOUTHWEST ARIZONA

CITY           SKY/WX    TMP DP  RH WIND       PRES   REMARKS
YUMA           CLEAR     75  41  29 SE13      29.80S
$$

CAZ031-033-041-043-047-048-061-290800-
SOUTHERN CALIFORNIA

CITY           SKY/WX    TMP DP  RH WIND       PRES   REMARKS
DOWNTOWN L.A.  CLOUDY    61  53  75 W3        29.97S
L.A. AIRPORT   CLOUDY    60  53  77 NW6       29.97S
SAN DIEGO      CLOUDY    62  55  77 CALM      29.99S
BURBANK        CLOUDY    58  53  84 S5        29.96S
ONTARIO        MOCLDY    61  53  75 W9        29.96S
RIVERSIDE      CLOUDY    61  53  75 W8        29.97R
PALM SPRINGS   CLEAR     74  53  48 NW9       29.84R
EL CENTRO NAS  CLEAR     75  41  29 CALM      29.79S
IMPERIAL       CLEAR     70  43  37 CALM      29.77S
BLYTHE         CLEAR     80  36  20 S9        29.80S
NEEDLES        CLEAR     84  34  16 W13       29.80S
$$

NVZ020-UTZ003-290800-
SOUTHERN NEVADA-UTAH

CITY           SKY/WX    TMP DP  RH WIND       PRES   REMARKS
LAS VEGAS      CLEAR     78  26  14 S3        29.82R
SALT LAKE CITY MOCLDY    63  39  41 SE7       30.06S
$$

NMZ009-TXZ055-290800-
NEW MEXICO-WEST TEXAS

CITY           SKY/WX    TMP DP  RH WIND       PRES   REMARKS
ALBUQUERQUE    CLOUDY    66  23  19 NE3       30.09F
EL PASO        PTCLDY    68   5   8 SW14      30.00R
$$


........................KEY........................
SKY/WX - SKY CONDITION/WEATHER
TMP    - TEMPERATURE IN FAHRENHEIT
DP     - DEW POINT IN FAHRENHEIT
RH     - RELATIVE HUMIDITY IN PERCENT
WIND   - DIRECTION AND SPEED IN MILES PER HOUR (MPH)
VRB    - VARIABLE WIND DIRECTION
PRES   - MEAN SEA LEVEL PRESSURE IN INCHES OF MERCURY
         F - FALLING PRESSURE   R - RISING PRESSURE
         S - STEADY PRESSURE
VSB    - VISIBILITY IN MILES
HX     - HEAT INDEX IN FAHRENHEIT
WCI    - WIND CHILL INDEX IN FAHRENHEIT
TC     - TEMPERATURE IN CELSIUS WHICH IS ALSO KNOWN AS
         TEMPERATURE IN CENTIGRADE
AFB    - AIR FORCE BASE
         LUKE AFB IS LUKE AIR FORCE BASE
         DAVIS-MONTHAN IS DAVIS-MONTHAN AIR FORCE BASE
NAS    - NAVAL AIR STATION
         EL CENTRO NAS IS EL CENTRO NAVAL AIR STATION
N/A    - NOT AVAILABLE





USA.gov is the U.S. government's official web portal to all federal, state and local government web resources and services.